When you browse on this site, cookies collect data to enhance your experience and personalize the content and advertising you see.
Visit our Privacy Policy to learn more. By continuing to use the site, you agree to this use of cookies and data.
  • In Hungary
  • List of Countries
  • For 7 days
  • Water Temperature
  • Satellite Maps
  • Weather Map
  • News
  • Weather Widgets
  • user-avatar
    Login

    Hourly Weather Sadki

    Today, 20 May, Monday

    Time Temperature Precipitation Wind Pressure Humidity
    00:00 +13°C° 0 mm 2 mps 744 mmHg 80%
    01:00 +13°C° 0 mm 1 mps 745 mmHg 82%
    02:00 +13°C° 0 mm 1 mps 745 mmHg 83%
    03:00 +13°C° 0 mm 1 mps 745 mmHg 83%
    04:00 +13°C° 0 mm 1 mps 745 mmHg 83%
    05:00 +13°C° 0 mm 1 mps 745 mmHg 83%
    06:00 +15°C° 0 mm 1 mps 746 mmHg 77%
    07:00 +18°C° 0 mm 1 mps 746 mmHg 71%
    08:00 +20°C° 0 mm 1 mps 746 mmHg 64%
    09:00 +20°C° 0 mm 2 mps 746 mmHg 59%
    10:00 +23°C° 0 mm 2 mps 746 mmHg 53%
    11:00 +24°C° 0 mm 2 mps 746 mmHg 48%
    12:00 +24°C° 0 mm 2 mps 746 mmHg 47%
    13:00 +25°C° 0 mm 2 mps 746 mmHg 46%
    14:00 +25°C° 0 mm 2 mps 746 mmHg 45%
    15:00 +25°C° 0 mm 2 mps 745 mmHg 49%
    16:00 +24°C° 0 mm 2 mps 745 mmHg 53%
    17:00 +24°C° 0 mm 2 mps 745 mmHg 57%
    18:00 +21°C° 0 mm 2 mps 745 mmHg 62%
    19:00 +19°C° 0 mm 2 mps 745 mmHg 68%
    20:00 +17°C° 0 mm 2 mps 745 mmHg 73%
    21:00 +16°C° 0 mm 2 mps 745 mmHg 75%
    22:00 +15°C° 0 mm 2 mps 745 mmHg 77%
    23:00 +14°C° 0 mm 2 mps 745 mmHg 79%

    Tomorrow, 21 May, Tuesday

    Time Temperature Precipitation Wind Pressure Humidity
    00:00 +14°C° 0 mm 2 mps 745 mmHg 83%
    01:00 +13°C° 0 mm 2 mps 745 mmHg 86%
    02:00 +13°C° 0 mm 2 mps 745 mmHg 89%
    03:00 +13°C° 0 mm 2 mps 745 mmHg 88%
    04:00 +13°C° 0 mm 2 mps 745 mmHg 87%
    05:00 +13°C° 0 mm 2 mps 745 mmHg 86%
    06:00 +14°C° 0 mm 3 mps 745 mmHg 78%
    07:00 +17°C° 0 mm 4 mps 745 mmHg 69%
    08:00 +18°C° 0 mm 4 mps 745 mmHg 60%
    09:00 +19°C° 0 mm 5 mps 745 mmHg 56%
    10:00 +20°C° 0 mm 5 mps 744 mmHg 52%
    11:00 +21°C° 0 mm 5 mps 744 mmHg 48%
    12:00 +22°C° 0 mm 5 mps 744 mmHg 47%
    13:00 +22°C° 0 mm 4 mps 744 mmHg 46%
    14:00 +23°C° 0 mm 4 mps 743 mmHg 44%
    15:00 +24°C° 0 mm 3 mps 743 mmHg 48%
    16:00 +22°C° 0 mm 3 mps 742 mmHg 52%
    17:00 +23°C° 0 mm 2 mps 742 mmHg 55%
    18:00 +20°C° 0 mm 2 mps 742 mmHg 62%
    19:00 +18°C° 0 mm 2 mps 742 mmHg 68%
    20:00 +16°C° 0 mm 2 mps 741 mmHg 75%
    21:00 +15°C° 0 mm 2 mps 741 mmHg 79%
    22:00 +14°C° 0 mm 2 mps 741 mmHg 82%
    23:00 +14°C° 0 mm 2 mps 741 mmHg 86%

    Day after tomorrow, 22 May, Wednesday

    Time Temperature Precipitation Wind Pressure Humidity
    00:00 +13°C° 0 mm 2 mps 741 mmHg 88%
    01:00 +13°C° 0 mm 2 mps 741 mmHg 90%
    02:00 +13°C° 0 mm 2 mps 740 mmHg 93%
    03:00 +13°C° 0 mm 2 mps 740 mmHg 93%
    04:00 +14°C° 0 mm 2 mps 740 mmHg 92%
    05:00 +14°C° 0 mm 2 mps 740 mmHg 92%
    06:00 +16°C° 0 mm 2 mps 740 mmHg 86%
    07:00 +18°C° 0 mm 2 mps 739 mmHg 80%
    08:00 +20°C° 0 mm 2 mps 739 mmHg 74%
    09:00 +20°C° 1 mm 2 mps 739 mmHg 72%
    10:00 +21°C° 1 mm 2 mps 739 mmHg 71%
    11:00 +22°C° 1 mm 3 mps 738 mmHg 70%
    12:00 +22°C° 0.9 mm 3 mps 738 mmHg 70%
    13:00 +22°C° 0.9 mm 3 mps 738 mmHg 71%
    14:00 +22°C° 0.9 mm 3 mps 737 mmHg 72%
    15:00 +23°C° 0 mm 2 mps 737 mmHg 71%
    16:00 +24°C° 0 mm 2 mps 737 mmHg 70%
    17:00 +24°C° 0 mm 2 mps 737 mmHg 69%
    18:00 +21°C° 0.1 mm 2 mps 737 mmHg 76%
    19:00 +20°C° 0.1 mm 2 mps 736 mmHg 82%
    20:00 +19°C° 0.1 mm 1 mps 736 mmHg 89%
    21:00 +17°C° 0 mm 2 mps 736 mmHg 90%
    22:00 +17°C° 0 mm 2 mps 736 mmHg 91%
    23:00 +16°C° 0 mm 2 mps 736 mmHg 93%

    23 May, Thursday

    Time Temperature Precipitation Wind Pressure Humidity
    00:00 +16°C° 0 mm 2 mps 736 mmHg 93%
    01:00 +15°C° 0 mm 2 mps 736 mmHg 93%
    02:00 +15°C° 0 mm 2 mps 736 mmHg 93%
    03:00 +15°C° 0 mm 2 mps 736 mmHg 93%
    04:00 +15°C° 0 mm 2 mps 736 mmHg 93%
    05:00 +15°C° 0 mm 2 mps 735 mmHg 93%
    06:00 +17°C° 0 mm 2 mps 735 mmHg 87%
    07:00 +19°C° 0 mm 2 mps 735 mmHg 81%
    08:00 +20°C° 0 mm 2 mps 735 mmHg 75%
    09:00 +22°C° 0 mm 3 mps 735 mmHg 70%
    10:00 +24°C° 0 mm 3 mps 735 mmHg 66%
    11:00 +25°C° 0 mm 3 mps 735 mmHg 61%
    12:00 +25°C° 0.5 mm 3 mps 735 mmHg 62%
    13:00 +25°C° 0.5 mm 3 mps 735 mmHg 62%
    14:00 +25°C° 0.5 mm 3 mps 735 mmHg 63%
    15:00 +25°C° 0.6 mm 3 mps 735 mmHg 66%
    16:00 +24°C° 0.6 mm 2 mps 735 mmHg 69%
    17:00 +24°C° 0.6 mm 2 mps 735 mmHg 71%
    18:00 +22°C° 0.1 mm 1 mps 735 mmHg 76%
    19:00 +20°C° 0.1 mm 1 mps 735 mmHg 81%
    20:00 +17°C° 0.1 mm 0 mps 735 mmHg 86%
    21:00 +16°C° 0.6 mm 0 mps 735 mmHg 88%
    22:00 +16°C° 0.6 mm 0 mps 735 mmHg 90%
    23:00 +16°C° 0.6 mm 1 mps 735 mmHg 92%

    24 May, Friday

    Time Temperature Precipitation Wind Pressure Humidity
    00:00 +16°C° 0.3 mm 1 mps 735 mmHg 92%
    01:00 +15°C° 0.3 mm 1 mps 735 mmHg 92%
    02:00 +15°C° 0.3 mm 1 mps 735 mmHg 93%
    03:00 +15°C° 0.2 mm 1 mps 735 mmHg 93%
    04:00 +16°C° 0.2 mm 1 mps 734 mmHg 93%
    05:00 +16°C° 0.2 mm 1 mps 734 mmHg 93%
    06:00 +18°C° 0.6 mm 1 mps 734 mmHg 89%
    07:00 +20°C° 0.6 mm 1 mps 734 mmHg 85%
    08:00 +20°C° 0.6 mm 2 mps 734 mmHg 80%
    09:00 +21°C° 1.1 mm 2 mps 734 mmHg 76%
    10:00 +23°C° 1.1 mm 2 mps 734 mmHg 71%
    11:00 +23°C° 1.1 mm 2 mps 734 mmHg 67%
    12:00 +24°C° 1 mm 2 mps 734 mmHg 66%
    13:00 +24°C° 1 mm 1 mps 733 mmHg 65%
    14:00 +24°C° 1 mm 1 mps 733 mmHg 64%
    15:00 +24°C° 0.8 mm 1 mps 733 mmHg 67%
    16:00 +23°C° 0.8 mm 2 mps 733 mmHg 71%
    17:00 +23°C° 0.8 mm 2 mps 733 mmHg 75%
    18:00 +21°C° 0.7 mm 1 mps 733 mmHg 79%
    19:00 +20°C° 0.7 mm 1 mps 732 mmHg 83%
    20:00 +18°C° 0.7 mm 1 mps 732 mmHg 87%
    21:00 +18°C° 0.7 mm 1 mps 732 mmHg 89%
    22:00 +16°C° 0.7 mm 1 mps 732 mmHg 90%
    23:00 +16°C° 0.7 mm 1 mps 732 mmHg 92%

    25 May, Saturday

    Time Temperature Precipitation Wind Pressure Humidity
    00:00 +16°C° 0.4 mm 1 mps 732 mmHg 93%
    01:00 +15°C° 0.4 mm 1 mps 732 mmHg 94%
    02:00 +15°C° 0.4 mm 1 mps 732 mmHg 94%
    03:00 +15°C° 0 mm 1 mps 732 mmHg 95%
    04:00 +15°C° 0 mm 2 mps 732 mmHg 95%
    05:00 +15°C° 0 mm 2 mps 732 mmHg 96%
    06:00 +16°C° 0 mm 2 mps 732 mmHg 94%
    07:00 +16°C° 0 mm 2 mps 732 mmHg 92%
    08:00 +17°C° 0 mm 3 mps 732 mmHg 90%
    09:00 +18°C° 0.2 mm 3 mps 732 mmHg 83%
    10:00 +19°C° 0.2 mm 4 mps 732 mmHg 76%
    11:00 +20°C° 0.2 mm 4 mps 732 mmHg 69%
    12:00 +20°C° 0 mm 4 mps 732 mmHg 65%
    13:00 +21°C° 0 mm 4 mps 732 mmHg 61%
    14:00 +21°C° 0 mm 4 mps 732 mmHg 57%
    15:00 +21°C° 0 mm 3 mps 732 mmHg 59%
    16:00 +21°C° 0 mm 3 mps 732 mmHg 60%
    17:00 +21°C° 0 mm 3 mps 732 mmHg 61%
    18:00 +19°C° 0 mm 3 mps 732 mmHg 67%
    19:00 +17°C° 0 mm 2 mps 732 mmHg 72%
    20:00 +15°C° 0 mm 2 mps 732 mmHg 78%
    21:00 +14°C° 0 mm 2 mps 732 mmHg 79%
    22:00 +14°C° 0 mm 2 mps 732 mmHg 80%
    23:00 +13°C° 0 mm 2 mps 732 mmHg 81%
    Show more